EWG55A EDDL-LOWG

Flight info

Callsign EWG55A
Flight time N/A
Altitude 35000
Route N0441F350 DODEN Y853 BOMBI DCT ESATI/N0439F370 DCT BARSU DCT MOOCE DCT RUDNO DCT LAMSI DCT LEOBE
Aircraft A319/M-SDE2E3FGIJ1RWXYZ/EB1

Departure

Time 2026-05-04 14:09
Airport Düsseldorf Airport (EDDL)

Arrival

Time N/A
Airport Graz Airport (LOWG)
Time Latitude Longitude Altitude Speed Heading
2026-05-04 13:43 51.27914 6.75937 130 ft 0 kts 91°
2026-05-04 13:59 51.27914 6.75936 130 ft 0 kts 91°
2026-05-04 14:03 51.27914 6.75940 130 ft 1 kts 91°
2026-05-04 14:03 51.27913 6.75971 127 ft 4 kts 91°
2026-05-04 14:03 51.27914 6.76021 130 ft 4 kts 72°
2026-05-04 14:04 51.27993 6.76046 130 ft 8 kts 359°
2026-05-04 14:04 51.28060 6.76049 130 ft 11 kts
2026-05-04 14:04 51.28136 6.76045 130 ft 12 kts 28°
2026-05-04 14:05 51.28262 6.76300 124 ft 17 kts 52°
2026-05-04 14:05 51.28342 6.76468 124 ft 20 kts 52°
2026-05-04 14:05 51.28433 6.76659 122 ft 23 kts 52°
2026-05-04 14:06 51.28531 6.76863 125 ft 23 kts 53°
2026-05-04 14:06 51.28629 6.77069 129 ft 24 kts 52°
2026-05-04 14:06 51.28736 6.77293 128 ft 26 kts 53°
2026-05-04 14:06 51.28851 6.77535 129 ft 28 kts 53°
2026-05-04 14:07 51.28974 6.77793 129 ft 30 kts 53°
2026-05-04 14:07 51.29081 6.78019 131 ft 22 kts 52°
2026-05-04 14:07 51.29159 6.78181 136 ft 16 kts 47°
2026-05-04 14:07 51.29260 6.78186 139 ft 15 kts 335°
2026-05-04 14:08 51.29324 6.78103 143 ft 10 kts 305°
2026-05-04 14:08 51.29318 6.78045 142 ft 0 kts 232°
2026-05-04 14:08 51.29312 6.78032 142 ft 8 kts 232°
2026-05-04 14:08 51.29158 6.77712 135 ft 72 kts 233°
2026-05-04 14:09 51.28108 6.75489 406 ft 153 kts 234°
2026-05-04 14:09 51.27483 6.74143 1095 ft 150 kts 232°
2026-05-04 14:10 51.26173 6.71332 2013 ft 178 kts 232°
2026-05-04 14:10 51.25378 6.69633 2414 ft 204 kts 231°
2026-05-04 14:10 51.24478 6.67705 2964 ft 229 kts 232°
2026-05-04 14:10 51.23480 6.65578 3594 ft 249 kts 231°
2026-05-04 14:11 51.22103 6.63851 4471 ft 260 kts 201°
2026-05-04 14:11 51.18487 6.63825 6382 ft 265 kts 174°
2026-05-04 14:11 51.16643 6.64163 7358 ft 269 kts 172°
2026-05-04 14:12 51.14892 6.65247 8296 ft 276 kts 145°
2026-05-04 14:12 51.13608 6.67529 9259 ft 282 kts 118°
2026-05-04 14:12 51.13147 6.73863 10583 ft 314 kts 89°
2026-05-04 14:13 51.13277 6.77454 10960 ft 334 kts 88°
2026-05-04 14:13 51.13439 6.81191 11659 ft 342 kts 87°
2026-05-04 14:13 51.13609 6.84993 12420 ft 347 kts 87°
2026-05-04 14:13 51.13628 6.88849 13161 ft 350 kts 99°
2026-05-04 14:14 51.13012 6.92605 13923 ft 353 kts 109°
2026-05-04 14:14 51.11529 7.00114 15256 ft 360 kts 110°
2026-05-04 14:14 51.10785 7.03885 16022 ft 364 kts 110°
2026-05-04 14:15 51.09210 7.11663 17612 ft 373 kts 114°
2026-05-04 14:15 51.06309 7.18455 18837 ft 375 kts 131°
2026-05-04 14:16 51.03032 7.25014 20014 ft 382 kts 132°
2026-05-04 14:16 51.01369 7.28328 20590 ft 386 kts 132°
2026-05-04 14:17 50.98021 7.35007 21733 ft 392 kts 132°
2026-05-04 14:17 50.96314 7.38416 22297 ft 396 kts 132°
2026-05-04 14:17 50.92851 7.45319 23395 ft 403 kts 132°
2026-05-04 14:18 50.91093 7.48806 23871 ft 407 kts 132°
2026-05-04 14:18 50.87537 7.55856 24785 ft 412 kts 133°
2026-05-04 14:19 50.83926 7.62987 25734 ft 418 kts 133°
2026-05-04 14:19 50.82125 7.66531 26189 ft 420 kts 133°
2026-05-04 14:19 50.80289 7.70137 26647 ft 423 kts 133°
2026-05-04 14:19 50.78441 7.73768 27085 ft 425 kts 133°
2026-05-04 14:20 50.76582 7.77419 27526 ft 428 kts 133°
2026-05-04 14:20 50.74711 7.81089 27969 ft 431 kts 133°
2026-05-04 14:20 50.72824 7.84788 28407 ft 433 kts 133°
2026-05-04 14:21 50.69011 7.92235 29249 ft 439 kts 134°
2026-05-04 14:21 50.67087 7.95987 29624 ft 442 kts 134°
2026-05-04 14:21 50.65144 7.99765 29977 ft 445 kts 134°
2026-05-04 14:21 50.63187 8.03565 30304 ft 448 kts 134°
2026-05-04 14:22 50.61213 8.07380 30598 ft 450 kts 135°
2026-05-04 14:22 50.59064 8.10841 30904 ft 448 kts 143°
2026-05-04 14:22 50.56667 8.14000 31210 ft 450 kts 145°
2026-05-04 14:22 50.54259 8.17148 31575 ft 450 kts 145°
2026-05-04 14:23 50.49453 8.23429 32468 ft 448 kts 145°
2026-05-04 14:23 50.47061 8.26559 32910 ft 447 kts 145°
2026-05-04 14:23 50.44675 8.29678 33349 ft 447 kts 145°
2026-05-04 14:24 50.42319 8.32761 33820 ft 446 kts 146°
2026-05-04 14:24 50.39937 8.35872 34221 ft 446 kts 146°
2026-05-04 14:24 50.37550 8.38975 34632 ft 446 kts 146°